www.pogodaiklimat.ru

Погода и климат >> Архив погоды >> Бангладеш >> Sitakundu


ПОГОДА в Sitakundu

  • Прогноз погоды в Sitakundu
  • Монитор погоды в Sitakundu
  • Климат города

АРХИВ ПОГОДЫ в Sitakundu

Время (UTC), дата Ветер
(напр.,м/с)
 
Видим.   Явления Облачность Т
(С)
Тd
(С)
f
(%)
Тe
(С)
Тes
(С)
Комфортность P
(гПа)
Po
(гПа)
Тmin
(С)
Tmax
(С)
R
(мм)
R24
(мм)
S
(см)
12 8.08 ЮЗ 1 7000 м 8/4 540 м
[Sc diur, vesp Ci sp]
+29.5 +26.0 81 +44 +44 опасность
перегрева
1001.5 1000.7 +33.0
15 8.08 штиль 0 7000 м 6/4 540 м
[Sc diur, vesp Ac trans]
+28.0 +26.0 89 +42 +42 опасность
перегрева
1003.3 1002.4
18 8.08 штиль 0 6000 м 8/4 540 м
[St As trans]
+27.5 +26.0 92 +41 +41 опасность
перегрева
1003.5 1002.6
00 9.08 штиль 0 5000 м слабый переохл. дождь (гололёд) 10/6 300 м
[Cb calv As op]
+27.0 +25.0 89 +39 +39 очень
душно
1002.2 1001.4 12
03 9.08 штиль 0 6000 м 8/4 300 м
[St As trans]
+30.0 +25.0 75 +43 +49 опасность
перегрева
1005.6 1004.7 +26.0
06 9.08 ЮЗ 1 7000 м 8/4 540 м
[Sc diur, vesp Cs]
+31.0 +26.0 75 +46 +60 опасность
перегрева
1004.8 1003.9
09 9.08 Ю 1 7000 м 6/3 600 м
[Sc diur, vesp Cc]
+32.5 +28.0 77 +53 +61 опасность
перегрева
1002.9 1002.1
12 9.08 штиль 0 7000 м 8/3 540 м
[Sc diur, vesp Ci sp]
+29.5 +26.0 81 +44 +44 опасность
перегрева
1002.5 1001.7 +33.0
15 9.08 штиль 0 7000 м 8/3 540 м
[Sc diur, vesp Ci sp]
+28.0 +26.0 89 +42 +42 опасность
перегрева
1004.3 1003.4
18 9.08 штиль 0 6000 м 3/3 540 м
[Sc diur, vesp]
+27.5 +27.0 97 +43 +43 опасность
перегрева
1004.4 1003.5
00 10.08 штиль 0 5000 м 3/0
[Cc]
+27.0 +25.0 89 +39 +39 очень
душно
1003.4 1002.5
03 10.08 штиль 0 7000 м 6/3 540 м
[Sc diur, vesp Ac trans]
+31.0 +25.0 70 +44 +53 опасность
перегрева
1004.1 1003.2 +26.2
06 10.08 штиль 0 6000 м 10/4 300 м
[St As trans]
+31.5 +27.0 77 +49 +56 опасность
перегрева
1003.7 1002.8
09 10.08 ЮЗ 1 7000 м 5/5 600 м
[Sc diur, vesp]
+32.5 +27.0 73 +51 +58 опасность
перегрева
1001.1 1000.3
12 10.08 штиль 0 6000 м 5/5 300 м
[Sc diur, vesp]
+29.5 +27.0 86 +46 +46 опасность
перегрева
1000.7 999.9 +33.0
18 10.08 штиль 0 6000 м 3/3 600 м
[Sc diur, vesp]
+28.0 +26.0 89 +42 +42 опасность
перегрева
1002.9 1002.0
03 11.08 штиль 0 6000 м 8/4 540 м
[Sc diur, vesp As trans Cc]
+30.0 +26.0 79 +45 +52 опасность
перегрева
1001.8 1001.0 +26.2
06 11.08 штиль 0 6000 м 10/6 300 м
[Cb calv As trans]
+31.0 +26.0 75 +46 +51 опасность
перегрева
1001.5 1000.7
09 11.08 штиль 0 7000 м {дождь} 8/4 540 м
[Sc diur, vesp As trans]
+31.0 +26.0 75 +46 +52 опасность
перегрева
999.0 998.2
12 11.08 ЮЗ 1 6000 м {дождь} 5/4 300 м
[Sc diur, vesp Cc]
+28.5 +27.0 92 +45 +45 опасность
перегрева
998.6 997.8 +32.0 1
15 11.08 штиль 0 6000 м 4/4 600 м
[Sc diur, vesp]
+28.0 +26.0 89 +42 +42 опасность
перегрева
1000.5 999.7
18 11.08 штиль 0 6000 м 3/3 600 м
[Sc diur, vesp]
+27.5 +26.0 92 +41 +41 опасность
перегрева
1001.2 1000.4
00 12.08 ЮВ 1 6000 м {дождь} 10/4 300 м
[Cb calv As op]
+26.0 +25.0 94 +37 +37 очень
душно
999.4 998.6 6
03 12.08 ЮВ 1 6000 м 8/4 540 м
[Sc diur, vesp As trans]
+29.0 +26.0 84 +44 +49 опасность
перегрева
1000.1 999.3 +25.9
06 12.08 штиль 0 6000 м 10/4 300 м
[St As trans]
+30.5 +26.0 77 +46 +53 опасность
перегрева
999.5 998.7
09 12.08 штиль 0 7000 м 5/1 600 м
[Sc diur, vesp Cc]
+31.0 +25.0 70 +44 +57 опасность
перегрева
998.0 997.2
12 12.08 штиль 0 6000 м 10/6 300 м
[Cb calv As op]
+29.5 +27.0 86 +46 +46 опасность
перегрева
997.1 996.3 +32.5
15 12.08 штиль 0 5000 м в посл. час дождь 10/6 300 м
[Cb calv As op]
+27.5 +27.0 97 +43 +43 опасность
перегрева
998.6 997.8
18 12.08 штиль 0 6000 м {дождь} 4/4 540 м
[Sc diur, vesp]
+27.5 +26.0 92 +41 +41 опасность
перегрева
999.4 998.6 9
03 13.08 ЮЗ 1 7000 м 8/4 540 м
[Sc diur, vesp Cc]
+30.0 +25.0 75 +43 +51 опасность
перегрева
999.9 999.1 +26.3
03 14.08 штиль 0 6000 м 6/1 600 м
[Sc diur, vesp Ac As]
+29.0 +25.0 79 +42 +51 опасность
перегрева
999.0 998.1 +26.3
06 14.08 В 1 7000 м 5/1 600 м
[Sc diur, vesp Cc]
+34.0 +27.0 67 +52 +73 опасность
перегрева
999.1 998.3
09 14.08 Ю 1 7000 м 4/3 600 м
[Sc diur, vesp Ci fib]
+33.5 +30.0 82 +60 +70 опасность
перегрева
995.8 995.0
12 14.08 штиль 0 5000 м дождь 10/5 240 м
[Cb calv As op]
+29.0 +28.0 94 +48 +48 опасность
перегрева
996.4 995.6 +34.5
18 14.08 штиль 0 6000 м {дождь} 3/3 600 м
[Sc diur, vesp]
+27.0 +26.0 94 +40 +40 очень
душно
1000.0 999.2 4
00 15.08 штиль 0 5000 м 4/1 600 м
[Sc diur, vesp Cc]
+26.5 +25.0 91 +38 +38 очень
душно
1000.7 999.9
03 15.08 Ю 1 7000 м 4/0
[Cc]
+31.0 +27.0 79 +48 +62 опасность
перегрева
1002.1 1001.2 +26.5

 

Местоположение метеостанции Sitakundu (Бангладеш): широта 22.58 долгота 91.70 высота над уровнем моря 44 м.

В архиве по умолчанию представлена погода в Sitakundu за последнюю неделю. Архивные данные за месяц целиком и за предыдущие месяцы, начиная с января 2011 года, Вы можете получить, выбрав интересующий диапазон дат из раскрывающегося списка и нажав кнопку "Ввод!".


*Определитесь, кто Вы:
робот инопланетянин человек

Внимание! Время в таблицах - всемирное. Для получения местного времени необходимо прибавить поправку, которая в Sitakundu равна 6.5 ч.

Смотрите также архив погоды в соседних городах и на ближайших метеорологических станциях:

Погода в Sandwip (Бангладеш) (30 км)
Погода в Chittagong (Бангладеш) (37 км)
Погода в Rangamati (Бангладеш) (52 км)
Погода в Feni (Бангладеш) (58 км)
Погода в Hatia (Бангладеш) (64 км)
Погода в Maijdicourt (Бангладеш) (69 км)
Погода в Kutubdia (Бангладеш) (86 км)
Погода в Bhola (Бангладеш) (108 км)
Погода в Comilla (Бангладеш) (109 км)
Погода в Chandpur (Бангладеш) (128 км)

Пояснения к столбцам:

Ветер - указаны скорость ветра в м/с - средняя за 10 мин, порывы в срок и между сроками (в фигурных скобках) и направление, откуда дует ветер: С - северный, СВ - северо-восточный, В - восточный, ЮВ - юго-восточный, Ю - южный, ЮЗ - юго-западный, З - западный, СЗ - северо-западный.
Видимость - горизонтальная дальность видимости в метрах или километрах. При видимости от 1 до 10 км при отсутствии осадков обычно наблюдается дымка, при ухудшении видимости до 1 км и менее - туман. В сухую погоду видимость может ухудшаться дымом, пылью или мглою.
Явления - указаны атмосферные явления, наблюдавшиеся в срок или в последний час перед сроком; фигурными скобками обозначены явления, наблюдавшиеся между сроками (за 1-3 часа до срока); квадратными скобками обозначены град или гололедные отложения с указанием их диаметра в мм.
Облачность - указаны через наклонную черту общая и нижняя облачность в баллах и высота нижней границы облаков в метрах; квадратными скобками обозначены формы облаков: Ci - перистые, Cs - перисто-слоистые, Cc - перисто-кучевые, Ac - высококучевые, As - высокослоистые, Sc - слоисто-кучевые, Ns - слоисто-дождевые, Cu - кучевые, Cb - кучево-дождевые. Подробнее классификацию облаков см. в Атласе облаков (PDF).
T - Температура воздуха - температура, измеренная на высоте 2 м над землей.
Td - Температура точки росы - температура, при понижении до которой содержащийся в воздухе водяной пар достигнет насыщения.
f - Относительная влажность воздуха - влажноcть воздуха, измеренная на высоте 2 м над землей.
Te - Эффективная температура - температура, которую ощущает одетый по сезону человек в тени. Характеристика душности погоды. При расчете учитывается влияние влажности воздуха и скорости ветра на теплоощущения человека.
Tes - Эффективная температура на солнце - температура, которую ощущает человек, с поправкой на солнечный нагрев. Характеристика знойности погоды. Зависит от высоты солнца над горизонтом, облачности и скорости ветра. Ночью, в пасмурную погоду, а также при ветре 12 м/с и более поправка равна нулю.
P - Атмосферное давление - приведенное к уровню моря атмосферное давление.
Po - Атмосферное давление - измеренное на уровне метеостанции атмосферное давление.
Tmin - Минимальная температура - минимум температуры воздуха на высоте 2 м над землей.
Tmax - Максимальная температура - максимум температуры воздуха на высоте 2 м над землей.
R - Количество осадков - Количество выпавших осадков за период времени, мм. При наведении курсора мыши на число - период времени, за который выпало указанное количество осадков.
R24 - Количество осадков - Количество выпавших осадков за 24 часа, мм.
S - Снежный покров - Высота снежного покрова, см. При наведении курсора мыши на число - состояние снежного покрова и степень покрытия местности в баллах.